Regional Weather Roundup
Issued by NWS

Home | Current Version | Previous Version | Graphics & Text | Print | Product List | Glossary On
Versions: 1 2 3 4 5 6 7 8 9 10 11 12 13 14 15 16 17 18 19 20 21 22 23 24 25 26 27 28 29 30 31 32 33 34 35 36 37 38 39 40 41 42 43 44 45 46 47 48 49 50
000
ASUS43 KFSD 041902
RWRSD

WEATHER ROUNDUP FOR SOUTH DAKOTA
NATIONAL WEATHER SERVICE SIOUX FALLS SD
200 PM CDT WED MAY 04 2016

NOTE: "FAIR" INDICATES FEW OR NO CLOUDS BELOW 12,000 FEET WITH NO
SIGNIFICANT WEATHER AND/OR OBSTRUCTIONS TO VISIBILITY.


SDZ001>005-009-010-012>017-042000-
NORTHWEST AND NORTH CENTRAL SOUTH DAKOTA

CITY           SKY/WX    TMP DP  RH WIND       PRES   REMARKS
BUFFALO          N/A     78  37  22 S12G20    30.01F
FAITH            N/A     74  40  29 W5        30.08F
MOBRIDGE       SUNNY     70  39  32 VRB5      30.06F
$$

SDZ012>016-024>037-041>051-057-063-072>074-042000-
SOUTHWEST AND SOUTH CENTRAL SOUTH DAKOTA

CITY           SKY/WX    TMP DP  RH WIND       PRES   REMARKS
RAPID CTY ARPT SUNNY     75  40  28 VRB7      30.11F
PIERRE         SUNNY     69  36  29 VRB5      30.09F
CUSTER         SUNNY     66  34  30 VRB7      30.20F
PHILIP         SUNNY     74  43  32 VRB3      30.09F
PINE RIDGE     SUNNY     73  35  25 VRB3      30.13F
WINNER         FAIR      68  33  27 NW5       30.12F
$$

SDZ004>011-016>023-039-040-042000-
NORTHEAST SOUTH DAKOTA

CITY           SKY/WX    TMP DP  RH WIND       PRES   REMARKS
ABERDEEN       SUNNY     69  32  25 N9G22     30.07F
WATERTOWN      SUNNY     65  33  30 N15       30.05F
BROOKINGS      SUNNY     64  34  32 NW13G21   30.04F
SISSETON         N/A     67  26  21 N13       30.04F
$$

SDZ017-020-022-023-036>040-048>070-042000-
SOUTHEAST SOUTH DAKOTA

CITY           SKY/WX    TMP DP  RH WIND       PRES   REMARKS
SIOUX FALLS    MOSUNNY   66  39  37 NW15G21   30.05F
HURON          SUNNY     66  36  32 NW13      30.07F
MITCHELL       SUNNY     66  36  32 N12       30.09F
YANKTON        SUNNY     63  37  39 NW13G18   30.07F
$$

ABBREVIATIONS USED IN REMARKS
   TC - TEMPERATURE IN CELSIUS
  WCI - WIND CHILL INDEX
   HX - HEAT INDEX
  VSB - VISIBILITY





USA.gov is the U.S. government's official web portal to all federal, state and local government web resources and services.